Location: Newark
(44.4500°N, 0.0833°W)
Time: 04:08:11
(UTC+00:00)

Envisat - Visible Passes

Search period start: 06 December 2019 00:00
Search period end: 16 December 2019 00:00
Orbit: 764 x 766 km, 98.1° (Epoch: 05 December)

Date Brightness Start Highest point End Pass type
(mag) Time Alt. Az. Time Alt. Az. Time Alt. Az.
06 Dec 6.0 05:32:26 10° NE 05:35:13 15° E 05:37:59 10° ESE visible
06 Dec 4.0 16:48:10 10° ESE 16:52:11 24° ENE 16:56:12 10° NNE visible
06 Dec 4.0 18:26:03 10° S 18:30:55 46° W 18:35:50 10° NNW visible
07 Dec 3.9 06:32:59 10° NNE 06:37:59 53° E 06:42:56 10° S visible
07 Dec 2.9 17:49:01 10° SSE 17:54:05 82° ENE 17:59:11 10° NNW visible
07 Dec 6.1 19:31:35 10° WSW 19:33:45 13° W 19:35:55 10° WNW visible
08 Dec 5.4 05:56:49 10° NE 06:00:59 25° E 06:05:08 10° SSE visible
08 Dec 3.4 17:12:47 10° SE 17:17:27 39° ENE 17:22:10 10° N visible
08 Dec 5.0 18:52:17 10° SSW 18:56:35 27° W 19:00:53 10° NW visible
09 Dec 6.3 05:22:11 10° ENE 05:23:47 11° E 05:25:23 10° ESE visible
09 Dec 3.6 18:14:36 10° S 18:19:36 59° W 18:24:38 10° NNW visible
10 Dec 4.4 06:21:49 10° NNE 06:26:39 42° E 06:31:27 10° S visible
10 Dec 2.9 17:37:49 10° SSE 17:42:50 66° ENE 17:47:53 10° N visible
10 Dec 5.8 19:19:14 10° SW 19:22:19 16° W 19:25:25 10° NW visible
11 Dec 5.8 05:45:53 10° NE 05:49:35 20° E 05:53:18 10° SE visible
11 Dec 3.7 17:01:49 10° SE 17:06:15 32° ENE 17:10:43 10° N visible
11 Dec 4.6 18:40:38 10° SSW 18:45:13 34° W 18:49:50 10° NNW visible
12 Dec 3.3 06:47:07 10° NNE 06:52:13 74° ESE 06:57:17 10° S visible
12 Dec 3.2 18:03:14 10° S 18:08:18 74° WSW 18:13:24 10° NNW visible
13 Dec 4.9 06:10:41 10° NNE 06:15:18 34° E 06:19:54 10° SSE visible
13 Dec 3.1 17:26:41 10° SSE 17:31:35 53° ENE 17:36:32 10° N visible
13 Dec 5.5 19:07:14 10° SW 19:10:55 20° W 19:14:39 10° NW visible
14 Dec 6.0 05:35:06 10° NE 05:38:12 16° E 05:41:16 10° SE visible
14 Dec 3.9 16:50:56 10° ESE 16:55:04 26° ENE 16:59:13 10° N visible
14 Dec 4.2 18:29:04 10° S 18:33:52 43° W 18:38:43 10° NNW visible
15 Dec 3.7 06:35:53 10° NNE 06:40:55 58° E 06:45:55 10° S visible
15 Dec 2.9 17:51:56 10° SSE 17:57:01 89° E 18:02:08 10° NNW visible
15 Dec 6.2 19:35:07 10° WSW 19:36:45 11° W 19:38:22 10° WNW visible
